{"data":{"norad_id":66883,"intl_designator":"2025-283F","name":"STARLINK-35947","alt_names":[],"object_type":"PAYLOAD","status":"ACTIVE","operator":null,"country":"US","launch_date":"2025-12-04","launch_site_code":"AFWTR","launch_vehicle":null,"mission":null,"orbit_class":"UNKNOWN","rcs_meters":null,"size_class":null,"mass_kg":null,"dimensions":null,"purposes":["comms"],"wikipedia_slug":null,"has_3d_model":false,"image_url":null,"decayed_at":null,"tle_current":{"epoch":"2026-09-19T10:52:46.317504Z","epoch_age_seconds":174558,"freshness":"STALE","line1":"1 66883U 25283F   26262.45331386  .00022984  00000+0  68903-3 0  9995","line2":"2 66883  53.1576 200.3735 0001068  71.3596 288.7522 15.34411195 45586","mean_motion":15.34411195,"eccentricity":0.0001068,"inclination_deg":53.1576,"raan_deg":200.3735,"arg_perigee_deg":71.3596,"mean_anomaly_deg":288.7522,"bstar":0.00068903,"rev_number":4558,"period_min":93.847073372011,"perigee_km":461.93936832615,"apogee_km":463.40056469419,"semimajor_km":6840.8069665102,"source":"CELESTRAK","updated_at":"2026-09-21T09:00:36.032961Z"}}}